Regional Weather Roundup
Issued by NWS

Home | Current Version | Previous Version | Graphics & Text | Print | Product List | Glossary Off
Versions: 1 2 3 4 5 6 7 8 9 10 11 12 13 14 15 16 17 18 19 20 21 22 23 24 25 26 27 28 29 30 31 32 33 34 35 36 37 38 39 40 41 42 43 44 45 46 47 48 49 50

000
ASUS43 KLSX 020907
RWRMO

WEATHER SUMMARY FOR MISSOURI
NATIONAL WEATHER SERVICE SPRINGFIELD MO
400 AM CDT THU JUL 02 2015

NOTE: "FAIR" INDICATES FEW OR NO CLOUDS BELOW 12,000 FEET WITH NO
       SIGNIFICANT WEATHER AND/OR OBSTRUCTIONS TO VISIBILITY.
       CURRENT SKY AND/OR WEATHER CONDITIONS ARE NOT AVAILABLE FOR
       CHILLICOTHE AND FARMINGTON.

MOZ001>031-035>038-043-044-053-054-021000-
...NORTHERN AND WESTERN MISSOURI...

CITY           SKY/WX    TMP DP  RH WIND       PRES   REMARKS
KANSAS CTY INT CLOUDY    73  70  90 NE12      29.85S
KANSAS C DTWN  CLOUDY    74  71  91 E8        29.84R
LEE`S SUMMIT   CLOUDY    72  69  90 E9        29.85S
ST JOSEPH      CLOUDY    72  68  87 NE7       29.87S
CHILLICOTHE      N/A     71  67  87 VRB5      29.89S
KIRKSVILLE     CLOUDY    67  64  90 NE8       29.90S FOG

$$
MOZ066>068-077>081-088>096-101>105-021000-
...SOUTHWEST MISSOURI...

CITY           SKY/WX    TMP DP  RH WIND       PRES   REMARKS
SPRINGFIELD    LGT RAIN  70  67  90 SE13      29.87F
JOPLIN         CLOUDY    75  69  81 SE5       29.81F

$$
MOZ032>034-039>042-045>050-055>058-069>072-021000-
...CENTRAL MISSOURI...

CITY           SKY/WX    TMP DP  RH WIND       PRES   REMARKS
COLUMBIA       MOCLDY    70  69  97 E7        29.83F
JEFFERSON CITY CLOUDY    71  68  90 VRB6      29.82F
ROLLA          CLOUDY    67  66  97 S6        29.84F
SEDALIA        CLOUDY    72  69  90 E6        29.84F
WHITEMAN AFB   CLOUDY    71  70  99 E9        29.82F
WARRENSBURG    CLOUDY    70  68  94 NE8       29.83F
OSAGE BEACH    CLOUDY    70  66  88 CALM      29.84R

$$
MOZ051-052-059>065-021000-
...EAST CENTRAL MISSOURI...

CITY           SKY/WX    TMP DP  RH WIND       PRES   REMARKS
ST LOUIS INTL  LGT RAIN  74  69  85 CALM      29.84F
SPIRIT OF STL  CLOUDY    72  71  97 CALM      29.83F
ST CHARLES     RAIN      72  71  97 NE9       29.83F FOG

$$
MOZ072>076-082>087-097>100-106>115-021000-
...SOUTH CENTRAL AND SOUTHEAST MISSOURI...

CITY           SKY/WX    TMP DP  RH WIND       PRES   REMARKS
CAPE GIRARDEAU CLOUDY    70  69  97 E6        29.84F
FARMINGTON     CLOUDY    66  64  94 SW3       29.88F
WEST PLAINS    RAIN      69  66  90 S10       29.90F

$$


USA.gov is the U.S. government's official web portal to all federal, state and local government web resources and services.